• In Hungary
  • List of Countries
  • For 7 days
  • Water Temperature
  • Satellite Maps
  • Weather Map
  • News
  • Weather Widgets
  • user-avatar
    Login

    Hourly Weather Nettetal

    Today, 17 December, Sunday

    Time Temperature Precipitation Wind Pressure Humidity
    00:00 0°C° 0.1 mm 4 mps 759 mmHg 90%
    01:00 0°C° 0.2 mm 4 mps 759 mmHg 91%
    02:00 0°C° 0.2 mm 4 mps 759 mmHg 91%
    03:00 +1°C° 0.2 mm 3 mps 759 mmHg 91%
    04:00 0°C° 0.1 mm 3 mps 760 mmHg 92%
    05:00 0°C° 0.1 mm 3 mps 760 mmHg 92%
    06:00 0°C° 0.1 mm 3 mps 760 mmHg 93%
    07:00 0°C° 0 mm 3 mps 761 mmHg 92%
    08:00 0°C° 0 mm 3 mps 761 mmHg 91%
    09:00 +1°C° 0 mm 2 mps 762 mmHg 91%
    10:00 +2°C° 0 mm 2 mps 762 mmHg 88%
    11:00 +2°C° 0 mm 3 mps 762 mmHg 85%
    12:00 +3°C° 0 mm 3 mps 763 mmHg 83%
    13:00 +3°C° 0 mm 3 mps 763 mmHg 85%
    14:00 +2°C° 0 mm 3 mps 763 mmHg 87%
    15:00 +2°C° 0 mm 3 mps 763 mmHg 90%
    16:00 +2°C° 0 mm 3 mps 763 mmHg 89%
    17:00 +2°C° 0 mm 3 mps 763 mmHg 89%
    18:00 +2°C° 0 mm 3 mps 763 mmHg 89%
    19:00 +1°C° 0 mm 4 mps 763 mmHg 86%
    20:00 0°C° 0 mm 4 mps 763 mmHg 83%
    21:00 0°C° 0 mm 5 mps 763 mmHg 81%
    22:00 +1°C° 0.5 mm 5 mps 762 mmHg 82%
    23:00 +1°C° 0.5 mm 6 mps 762 mmHg 83%

    Tomorrow, 18 December, Monday

    Time Temperature Precipitation Wind Pressure Humidity
    00:00 +1°C° 0.5 mm 6 mps 761 mmHg 85%
    01:00 +2°C° 0.6 mm 6 mps 761 mmHg 87%
    02:00 +2°C° 0.6 mm 6 mps 760 mmHg 89%
    03:00 +3°C° 0.6 mm 5 mps 759 mmHg 91%
    04:00 +3°C° 0.3 mm 5 mps 760 mmHg 92%
    05:00 +3°C° 0.3 mm 5 mps 760 mmHg 92%
    06:00 +4°C° 0.3 mm 4 mps 760 mmHg 92%
    07:00 +4°C° 0 mm 4 mps 761 mmHg 89%
    08:00 +4°C° 0 mm 4 mps 761 mmHg 87%
    09:00 +4°C° 0 mm 4 mps 762 mmHg 84%
    10:00 +4°C° 0 mm 4 mps 762 mmHg 81%
    11:00 +5°C° 0 mm 4 mps 763 mmHg 77%
    12:00 +6°C° 0 mm 5 mps 763 mmHg 73%
    13:00 +5°C° 0 mm 4 mps 764 mmHg 75%
    14:00 +5°C° 0 mm 3 mps 764 mmHg 77%
    15:00 +4°C° 0 mm 3 mps 765 mmHg 79%
    16:00 +5°C° 0 mm 2 mps 765 mmHg 81%
    17:00 +4°C° 0 mm 2 mps 766 mmHg 83%
    18:00 +4°C° 0 mm 2 mps 767 mmHg 85%
    19:00 +4°C° 0 mm 2 mps 767 mmHg 85%
    20:00 +4°C° 0 mm 1 mps 768 mmHg 85%
    21:00 +4°C° 0 mm 1 mps 768 mmHg 86%
    22:00 +4°C° 0 mm 1 mps 769 mmHg 86%
    23:00 +3°C° 0 mm 1 mps 769 mmHg 86%

    Day after tomorrow, 19 December, Tuesday

    Time Temperature Precipitation Wind Pressure Humidity
    00:00 +3°C° 0 mm 1 mps 769 mmHg 87%
    01:00 +3°C° 0 mm 1 mps 770 mmHg 88%
    02:00 +2°C° 0 mm 2 mps 770 mmHg 89%
    03:00 +2°C° 0 mm 2 mps 770 mmHg 90%
    04:00 +2°C° 0 mm 2 mps 770 mmHg 91%
    05:00 +2°C° 0 mm 2 mps 771 mmHg 92%
    06:00 +1°C° 0 mm 2 mps 771 mmHg 93%
    07:00 +2°C° 0 mm 2 mps 771 mmHg 93%
    08:00 +2°C° 0 mm 2 mps 771 mmHg 93%
    09:00 +2°C° 0 mm 2 mps 772 mmHg 93%
    10:00 +3°C° 0 mm 2 mps 772 mmHg 91%
    11:00 +3°C° 0 mm 3 mps 772 mmHg 90%
    12:00 +4°C° 0 mm 3 mps 772 mmHg 88%
    13:00 +4°C° 0 mm 3 mps 771 mmHg 89%
    14:00 +4°C° 0 mm 3 mps 771 mmHg 91%
    15:00 +4°C° 0 mm 3 mps 771 mmHg 93%
    16:00 +3°C° 0 mm 3 mps 771 mmHg 93%
    17:00 +3°C° 0 mm 3 mps 771 mmHg 93%
    18:00 +2°C° 0 mm 3 mps 771 mmHg 93%
    19:00 +2°C° 0 mm 3 mps 771 mmHg 93%
    20:00 +2°C° 0 mm 3 mps 772 mmHg 93%
    21:00 +2°C° 0 mm 3 mps 772 mmHg 93%
    22:00 +2°C° 0 mm 3 mps 771 mmHg 92%
    23:00 +3°C° 0 mm 4 mps 771 mmHg 91%

    20 December, Wednesday

    Time Temperature Precipitation Wind Pressure Humidity
    00:00 +3°C° 0 mm 4 mps 771 mmHg 90%
    01:00 +3°C° 0.1 mm 4 mps 771 mmHg 90%
    02:00 +3°C° 0.1 mm 4 mps 771 mmHg 90%
    03:00 +4°C° 0.1 mm 4 mps 770 mmHg 91%
    04:00 +4°C° 0.2 mm 4 mps 770 mmHg 92%
    05:00 +4°C° 0.2 mm 4 mps 770 mmHg 93%
    06:00 +4°C° 0.2 mm 4 mps 770 mmHg 94%
    07:00 +4°C° 0.1 mm 3 mps 770 mmHg 94%
    08:00 +4°C° 0.1 mm 3 mps 771 mmHg 95%
    09:00 +5°C° 0.1 mm 3 mps 771 mmHg 96%
    10:00 +5°C° 0 mm 3 mps 771 mmHg 96%
    11:00 +7°C° 0 mm 3 mps 771 mmHg 96%
    12:00 +7°C° 0 mm 3 mps 770 mmHg 96%
    13:00 +7°C° 0.1 mm 3 mps 770 mmHg 96%
    14:00 +8°C° 0.1 mm 3 mps 770 mmHg 97%
    15:00 +8°C° 0.1 mm 3 mps 770 mmHg 97%
    16:00 +8°C° 0 mm 3 mps 770 mmHg 97%
    17:00 +8°C° 0 mm 3 mps 770 mmHg 97%
    18:00 +8°C° 0 mm 3 mps 771 mmHg 97%
    19:00 +8°C° 0 mm 3 mps 771 mmHg 96%
    20:00 +8°C° 0 mm 3 mps 771 mmHg 96%
    21:00 +7°C° 0 mm 4 mps 771 mmHg 96%
    22:00 +8°C° 0 mm 4 mps 770 mmHg 96%
    23:00 +8°C° 0 mm 4 mps 770 mmHg 96%

    21 December, Thursday

    Time Temperature Precipitation Wind Pressure Humidity
    00:00 +8°C° 0 mm 4 mps 770 mmHg 95%
    01:00 +8°C° 0 mm 4 mps 770 mmHg 95%
    02:00 +8°C° 0 mm 4 mps 770 mmHg 95%
    03:00 +8°C° 0 mm 4 mps 770 mmHg 95%
    04:00 +8°C° 0 mm 4 mps 770 mmHg 95%
    05:00 +8°C° 0 mm 4 mps 769 mmHg 94%
    06:00 +8°C° 0 mm 4 mps 769 mmHg 94%
    07:00 +8°C° 0 mm 4 mps 769 mmHg 94%
    08:00 +8°C° 0 mm 4 mps 769 mmHg 93%
    09:00 +8°C° 0 mm 5 mps 769 mmHg 93%
    10:00 +8°C° 0 mm 5 mps 769 mmHg 91%
    11:00 +8°C° 0 mm 5 mps 769 mmHg 90%
    12:00 +9°C° 0 mm 6 mps 768 mmHg 88%
    13:00 +9°C° 0.1 mm 5 mps 768 mmHg 88%
    14:00 +8°C° 0.1 mm 5 mps 768 mmHg 89%
    15:00 +8°C° 0.1 mm 5 mps 767 mmHg 89%
    16:00 +9°C° 0.1 mm 5 mps 767 mmHg 90%
    17:00 +9°C° 0.1 mm 5 mps 767 mmHg 90%
    18:00 +9°C° 0.1 mm 5 mps 767 mmHg 90%
    19:00 +9°C° 0.2 mm 5 mps 766 mmHg 89%
    20:00 +9°C° 0.2 mm 6 mps 765 mmHg 89%
    21:00 +9°C° 0.2 mm 6 mps 765 mmHg 88%
    22:00 +9°C° 0.7 mm 7 mps 764 mmHg 87%
    23:00 +9°C° 0.7 mm 8 mps 764 mmHg 87%

    22 December, Friday

    Time Temperature Precipitation Wind Pressure Humidity
    00:00 +9°C° 0.7 mm 8 mps 764 mmHg 87%
    01:00 +7°C° 0.2 mm 8 mps 765 mmHg 83%
    02:00 +6°C° 0.2 mm 7 mps 766 mmHg 80%
    03:00 +5°C° 0.2 mm 7 mps 767 mmHg 76%
    04:00 +5°C° 0 mm 6 mps 768 mmHg 77%
    05:00 +6°C° 0 mm 5 mps 769 mmHg 77%
    06:00 +5°C° 0 mm 4 mps 770 mmHg 78%
    07:00 +5°C° 0 mm 4 mps 771 mmHg 78%
    08:00 +5°C° 0 mm 5 mps 771 mmHg 78%
    09:00 +5°C° 0 mm 5 mps 772 mmHg 78%
    10:00 +6°C° 0 mm 5 mps 772 mmHg 75%
    11:00 +6°C° 0 mm 5 mps 773 mmHg 72%
    12:00 +7°C° 0 mm 5 mps 773 mmHg 69%
    13:00 +6°C° 0 mm 5 mps 773 mmHg 72%
    14:00 +6°C° 0 mm 4 mps 773 mmHg 74%
    15:00 +5°C° 0 mm 3 mps 773 mmHg 77%
    16:00 +5°C° 0 mm 3 mps 773 mmHg 80%
    17:00 +4°C° 0 mm 3 mps 774 mmHg 83%
    18:00 +4°C° 0 mm 3 mps 774 mmHg 86%
    19:00 +4°C° 0 mm 4 mps 774 mmHg 87%
    20:00 +4°C° 0 mm 4 mps 774 mmHg 87%
    21:00 +3°C° 0 mm 5 mps 774 mmHg 88%
    22:00 +3°C° 0 mm 5 mps 773 mmHg 87%
    23:00 +3°C° 0 mm 5 mps 773 mmHg 86%
    Show more